TYVAK-182A (48271 NORAD) Tracking and Keplerian Element Data

This shows tracking and keplerian element data for the satellite.

Feedback or suggestion? Click here.




ElementValue
Catalog48271
NameTYVAK-182A
Epoch Orbit261
Epoch Day136.78603329
Epoch Year2021
RAAN212.0734
Inclination97.7865
Eccentricity0.0002423
Argument of Perigee34.8723
Mean Anonmoly325.2679
Mean Motion14.86063442
Decay Rate4.28E-06
L11 48271U 21034D 21136.78603329 .00000428 00000-0 54958-4 0 9992
L22 48271 97.7865 212.0734 0002423 34.8723 325.2679 14.86063442 2614

Live tracking and technical data element details for TYVAK-182A (NORAD 48271). TYVAK-182A can be tracked NOW for your location showing map with azimuth and elevation plus other details from your city location.

Track the satellite on the map from your city or location and see movement details for azimuth, elevation, latitude, longitude, range, height, and movement on the map or in text.







IsCatalogInMostPopularTable: catalog: 48271, numindb: 1
Update: records affected: 1



GetName: 48271 TYVAK-182A

Hit Count: updated at: Mon, 17 May 2021 15:57:40 GMT